When you browse on this site, cookies collect data to enhance your experience and personalize the content and advertising you see.
Visit our Privacy Policy to learn more. By continuing to use the site, you agree to this use of cookies and data.
  • In Romania
  • List of Countries
  • For 7 days
  • Water Temperature
  • Satellite Maps
  • Weather Map
  • Weather Widgets
  • user-avatar
    Login

    Hourly Weather Zmeyka

    Today, 21 March, Thursday

    Time Temperature Precipitation Wind Pressure Humidity
    00:00 +5°C° 0 mm 2 mps 735 mmHg 84%
    01:00 +5°C° 0 mm 2 mps 735 mmHg 85%
    02:00 +4°C° 0 mm 2 mps 735 mmHg 85%
    03:00 +4°C° 0 mm 2 mps 735 mmHg 84%
    04:00 +4°C° 0 mm 2 mps 735 mmHg 84%
    05:00 +4°C° 0 mm 2 mps 735 mmHg 84%
    06:00 +5°C° 0 mm 1 mps 735 mmHg 84%
    07:00 +6°C° 0 mm 1 mps 735 mmHg 77%
    08:00 +8°C° 0 mm 1 mps 735 mmHg 70%
    09:00 +10°C° 0 mm 1 mps 735 mmHg 63%
    10:00 +11°C° 0 mm 1 mps 735 mmHg 59%
    11:00 +13°C° 0 mm 2 mps 735 mmHg 56%
    12:00 +14°C° 0 mm 2 mps 735 mmHg 52%
    13:00 +13°C° 0 mm 3 mps 735 mmHg 50%
    14:00 +14°C° 0 mm 3 mps 735 mmHg 49%
    15:00 +14°C° 0 mm 4 mps 734 mmHg 47%
    16:00 +14°C° 0 mm 4 mps 734 mmHg 50%
    17:00 +13°C° 0 mm 4 mps 734 mmHg 54%
    18:00 +12°C° 0 mm 4 mps 735 mmHg 57%
    19:00 +11°C° 0 mm 4 mps 735 mmHg 61%
    20:00 +10°C° 0 mm 3 mps 735 mmHg 66%
    21:00 +9°C° 0 mm 3 mps 735 mmHg 70%
    22:00 +8°C° 0 mm 4 mps 735 mmHg 71%
    23:00 +7°C° 0 mm 4 mps 735 mmHg 72%

    Tomorrow, 22 March, Friday

    Time Temperature Precipitation Wind Pressure Humidity
    00:00 +7°C° 0 mm 4 mps 735 mmHg 74%
    01:00 +7°C° 0 mm 4 mps 735 mmHg 74%
    02:00 +6°C° 0 mm 4 mps 735 mmHg 75%
    03:00 +6°C° 0 mm 4 mps 736 mmHg 76%
    04:00 +6°C° 0.1 mm 5 mps 736 mmHg 77%
    05:00 +5°C° 0.1 mm 5 mps 735 mmHg 79%
    06:00 +5°C° 0.1 mm 5 mps 735 mmHg 80%
    07:00 +5°C° 0.2 mm 5 mps 735 mmHg 77%
    08:00 +5°C° 0.2 mm 5 mps 735 mmHg 73%
    09:00 +5°C° 0.2 mm 5 mps 735 mmHg 69%
    10:00 +6°C° 0.3 mm 5 mps 735 mmHg 67%
    11:00 +5°C° 0.3 mm 6 mps 735 mmHg 64%
    12:00 +5°C° 0.3 mm 6 mps 734 mmHg 62%
    13:00 +5°C° 0.3 mm 6 mps 734 mmHg 60%
    14:00 +7°C° 0.3 mm 6 mps 734 mmHg 57%
    15:00 +8°C° 0.3 mm 6 mps 734 mmHg 55%
    16:00 +7°C° 0.1 mm 5 mps 734 mmHg 56%
    17:00 +7°C° 0.1 mm 4 mps 734 mmHg 58%
    18:00 +8°C° 0.1 mm 3 mps 734 mmHg 59%
    19:00 +7°C° 0 mm 3 mps 734 mmHg 62%
    20:00 +5°C° 0 mm 3 mps 734 mmHg 65%
    21:00 +6°C° 0 mm 2 mps 734 mmHg 68%
    22:00 +6°C° 0 mm 2 mps 734 mmHg 71%
    23:00 +5°C° 0 mm 2 mps 733 mmHg 74%

    Day after tomorrow, 23 March, Saturday

    Time Temperature Precipitation Wind Pressure Humidity
    00:00 +5°C° 0 mm 2 mps 733 mmHg 77%
    01:00 +5°C° 0 mm 2 mps 732 mmHg 78%
    02:00 +4°C° 0 mm 2 mps 732 mmHg 80%
    03:00 +4°C° 0 mm 2 mps 731 mmHg 82%
    04:00 +4°C° 0 mm 2 mps 731 mmHg 81%
    05:00 +4°C° 0 mm 2 mps 730 mmHg 79%
    06:00 +4°C° 0 mm 2 mps 729 mmHg 78%
    07:00 +5°C° 0 mm 2 mps 729 mmHg 75%
    08:00 +5°C° 0 mm 3 mps 729 mmHg 71%
    09:00 +6°C° 0 mm 4 mps 729 mmHg 67%
    10:00 +7°C° 0 mm 4 mps 729 mmHg 63%
    11:00 +8°C° 0 mm 4 mps 729 mmHg 59%
    12:00 +10°C° 0 mm 4 mps 729 mmHg 56%
    13:00 +10°C° 0.2 mm 4 mps 728 mmHg 56%
    14:00 +10°C° 0.2 mm 4 mps 728 mmHg 57%
    15:00 +10°C° 0.2 mm 4 mps 728 mmHg 58%
    16:00 +6°C° 2.9 mm 5 mps 728 mmHg 69%
    17:00 +3°C° 2.9 mm 5 mps 728 mmHg 79%
    18:00 +1°C° 2.9 mm 6 mps 728 mmHg 89%
    19:00 +1°C° 1.1 mm 5 mps 729 mmHg 91%
    20:00 0°C° 1.1 mm 4 mps 730 mmHg 93%
    21:00 +1°C° 1.1 mm 3 mps 730 mmHg 94%
    22:00 +2°C° 0.8 mm 2 mps 730 mmHg 95%
    23:00 +1°C° 0.8 mm 2 mps 731 mmHg 96%

    24 March, Sunday

    Time Temperature Precipitation Wind Pressure Humidity
    00:00 +1°C° 0.8 mm 2 mps 731 mmHg 97%
    01:00 +1°C° 0.4 mm 2 mps 731 mmHg 97%
    02:00 +2°C° 0.4 mm 1 mps 731 mmHg 96%
    03:00 +2°C° 0.4 mm 1 mps 731 mmHg 96%
    04:00 +2°C° 0.2 mm 1 mps 732 mmHg 96%
    05:00 +1°C° 0.2 mm 1 mps 732 mmHg 96%
    06:00 +1°C° 0.2 mm 1 mps 732 mmHg 95%
    07:00 +2°C° 0.1 mm 1 mps 732 mmHg 95%
    08:00 +2°C° 0.1 mm 1 mps 732 mmHg 94%
    09:00 +1°C° 0.1 mm 2 mps 733 mmHg 93%
    10:00 +2°C° 0.1 mm 2 mps 733 mmHg 90%
    11:00 +2°C° 0.1 mm 2 mps 732 mmHg 86%
    12:00 +3°C° 0.1 mm 2 mps 732 mmHg 83%
    13:00 +3°C° 0 mm 2 mps 732 mmHg 77%
    14:00 +4°C° 0 mm 2 mps 732 mmHg 72%
    15:00 +4°C° 0 mm 2 mps 732 mmHg 66%
    16:00 +4°C° 0 mm 2 mps 732 mmHg 68%
    17:00 +4°C° 0 mm 2 mps 732 mmHg 70%
    18:00 +4°C° 0 mm 2 mps 732 mmHg 72%
    19:00 +3°C° 0 mm 2 mps 733 mmHg 72%
    20:00 +3°C° 0 mm 2 mps 733 mmHg 73%
    21:00 +2°C° 0 mm 2 mps 733 mmHg 74%
    22:00 +1°C° 0 mm 3 mps 733 mmHg 74%
    23:00 0°C° 0 mm 3 mps 733 mmHg 74%

    25 March, Monday

    Time Temperature Precipitation Wind Pressure Humidity
    00:00 0°C° 0 mm 3 mps 733 mmHg 74%
    01:00 -1°C° 0 mm 3 mps 733 mmHg 74%
    02:00 -1°C° 0 mm 2 mps 733 mmHg 73%
    03:00 -1°C° 0 mm 2 mps 733 mmHg 73%
    04:00 -1°C° 0 mm 2 mps 734 mmHg 72%
    05:00 -1°C° 0 mm 2 mps 734 mmHg 71%
    06:00 -2°C° 0 mm 2 mps 734 mmHg 70%
    07:00 +1°C° 0 mm 2 mps 734 mmHg 65%
    08:00 +2°C° 0 mm 2 mps 734 mmHg 60%
    09:00 +4°C° 0 mm 2 mps 733 mmHg 55%
    10:00 +5°C° 0 mm 2 mps 733 mmHg 53%
    11:00 +6°C° 0 mm 2 mps 733 mmHg 51%
    12:00 +7°C° 0 mm 2 mps 733 mmHg 48%
    13:00 +7°C° 0 mm 3 mps 733 mmHg 48%
    14:00 +8°C° 0 mm 3 mps 732 mmHg 47%
    15:00 +8°C° 0 mm 3 mps 732 mmHg 46%
    16:00 +8°C° 0 mm 3 mps 732 mmHg 51%
    17:00 +7°C° 0 mm 2 mps 732 mmHg 56%
    18:00 +6°C° 0 mm 2 mps 733 mmHg 61%
    19:00 +6°C° 0 mm 2 mps 733 mmHg 65%
    20:00 +6°C° 0 mm 1 mps 733 mmHg 69%
    21:00 +4°C° 0 mm 0 mps 733 mmHg 73%
    22:00 +5°C° 0 mm 1 mps 733 mmHg 74%
    23:00 +4°C° 0 mm 1 mps 733 mmHg 75%

    26 March, Tuesday

    Time Temperature Precipitation Wind Pressure Humidity
    00:00 +4°C° 0 mm 1 mps 732 mmHg 76%
    01:00 +4°C° 0 mm 1 mps 732 mmHg 76%
    02:00 +3°C° 0 mm 1 mps 732 mmHg 76%
    03:00 +3°C° 0 mm 1 mps 732 mmHg 76%
    04:00 +3°C° 0 mm 1 mps 732 mmHg 76%
    05:00 +3°C° 0 mm 1 mps 731 mmHg 76%
    06:00 +2°C° 0 mm 1 mps 731 mmHg 76%
    07:00 +3°C° 0 mm 2 mps 731 mmHg 69%
    08:00 +4°C° 0 mm 3 mps 731 mmHg 63%
    09:00 +5°C° 0 mm 4 mps 730 mmHg 56%
    10:00 +6°C° 0 mm 5 mps 730 mmHg 54%
    11:00 +7°C° 0 mm 5 mps 730 mmHg 52%
    12:00 +8°C° 0 mm 5 mps 729 mmHg 50%
    13:00 +9°C° 0 mm 5 mps 729 mmHg 50%
    14:00 +10°C° 0 mm 5 mps 729 mmHg 50%
    15:00 +10°C° 0 mm 5 mps 728 mmHg 49%
    16:00 +9°C° 0 mm 5 mps 728 mmHg 52%
    17:00 +10°C° 0 mm 4 mps 728 mmHg 56%
    18:00 +8°C° 0 mm 4 mps 729 mmHg 59%
    19:00 +7°C° 0 mm 4 mps 729 mmHg 62%
    20:00 +7°C° 0 mm 3 mps 729 mmHg 65%
    21:00 +5°C° 0 mm 3 mps 730 mmHg 68%
    22:00 +4°C° 0 mm 3 mps 729 mmHg 70%
    23:00 +4°C° 0 mm 3 mps 729 mmHg 71%
    Show more